Location: Overspoor
(51.4747°N, 5.6641°E)
Time: 00:06:46
(UTC+02:00)

KKS-1 - Pass Details

Date: 02 July 2022
Orbit: 634 x 649 km, 98.2° (Epoch: 15 August)

Event Time Altitude Azimuth Distance (km) Brightness Sun altitude
Rises 01:19:34 0° 3° (N) 2,981 ? -15.3°
Reaches altitude 10° 01:22:22 10° 345° (NNW) 2,064 ? -15.4°
Maximum altitude 01:25:24 18° 303° (WNW) 1,582 ? -15.4°
Drops below altitude 10° 01:28:25 10° 260° (W) 2,051 ? -15.4°
Enters shadow 01:31:09 - 242° (WSW) 2,940 ? -15.4°
